Location: Newark
(35.8833°N, 14.5000°E)
Time: 18:07:46
(UTC+00:00)

Altair - Pass Details

Date: 20 November 2019
Orbit: 1502 x 1682 km, 47.2° (Epoch: 14 December)

Event Time Altitude Azimuth Distance (km) Brightness Sun altitude
Rises 09:52:54 0° 295° (WNW) 4,694 9.7 33.0°
Reaches altitude 10° 09:56:33 10° 284° (WNW) 3,733 9.4 33.2°
Maximum altitude 10:03:52 26° 232° (SW) 2,731 9.4 33.5°
Drops below altitude 10° 10:11:24 10° 181° (S) 3,833 11.0 33.8°
Sets 10:15:15 0° 169° (S) 4,844 11.2 33.9°
